Location: Abstetter Hof
(49.0418°N, 9.2728°E)
Time: 21:52:51
(UTC+00:00)

Daily predictions for brighter satellites

Satellite Brightness Start Highest point End
(mag) Time Altitude Azimuth Time Altitude Azimuth Time Altitude Azimuth
Cosmos 1802 Rocket 4.1 17:00:39 10° N 17:07:07 86° E 17:13:33 10° S
IRS-P3 4.1 17:02:19 10° SSE 17:07:34 67° ENE 17:12:52 10° N
Cosmos 2285 Rocket 4.4 17:02:39 10° NNW 17:08:49 45° ENE 17:14:55 10° SE
Cosmos 2233 Rocket 4.1 17:07:03 10° N 17:13:18 63° ENE 17:19:32 10° SSE
Cosmos 2219 Rocket 3.9 17:08:28 10° NW 17:13:37 39° WSW 17:18:45 10° S
SJ-6B 4.3 17:14:57 10° E 17:16:42 13° ENE 17:18:27 10° NNE
CARTOSAT-1 4.2 17:15:03 10° SE 17:18:45 31° ENE 17:22:28 10° N
Cosmos 1867 3.8 17:13:21 10° SW 17:18:47 78° NW 17:24:16 10° NE
USA 267 3.4 17:13:39 10° NE 17:20:14 80° NNW 17:26:46 10° WSW
Cosmos 1725 Rocket 4.2 17:14:31 10° N 17:20:47 84° W 17:27:04 10° S
Aureole 3 Rocket 3.4 17:18:26 10° N 17:22:07 31° ENE 17:25:07 10° SE
SJ-12 4.3 17:19:40 10° S 17:23:26 63° WSW 17:27:14 10° NNW
NOSS 0 Rocket 3.9 17:17:32 10° NNW 17:23:50 76° ENE 17:30:04 10° SE
Cosmos 2322 4.0 17:19:31 10° NNW 17:25:15 77° WSW 17:30:57 10° SSE
Cosmos 192 4.4 17:20:59 10° NNW 17:25:53 89° W 17:30:46 10° SSE
UNK 4.5 17:22:07 10° N 17:26:36 57° WNW 17:31:05 10° SSW
SL-08 R/B 4.5 17:21:07 10° N 17:27:20 88° E 17:33:25 10° S
Cosmos 2151 Rocket 3.6 17:26:34 10° N 17:31:06 89° E 17:35:35 10° S
SL-16 R/B 3.5 17:27:27 10° N 17:31:46 22° NE 17:35:24 12° E
Cosmos 1814 Rocket 4.2 17:27:20 10° SSW 17:32:38 79° WNW 17:37:54 10° NNE
Cosmos 2227 Rocket 3.5 17:29:54 10° SE 17:33:33 18° E 17:36:55 11° ENE
SAR-Lupe-1 4.1 17:31:37 10° SSE 17:35:11 85° WSW 17:38:47 10° NNW
Cosmos 1607 4.0 17:31:55 10° SW 17:38:03 87° NW 17:44:18 10° NE
Cosmos 1315 Rocket 3.4 17:34:32 10° NNW 17:38:16 57° W 17:41:59 10° S
ATLAS 5 CENTAUR R/B 3.8 17:34:29 10° WNW 17:38:24 31° WSW 17:43:05 10° S
Cosmos 1125 Rocket 3.4 17:33:20 10° NNW 17:38:33 75° ENE 17:43:44 10° SSE
Cosmos 2061 Rocket 4.0 17:32:07 10° N 17:38:34 82° E 17:44:53 10° S
SL-16 R/B 4.2 17:36:29 10° N 17:41:55 34° WNW 17:47:22 10° WSW
ARIANE 6 FM1 Upper Stage 4.2 17:39:57 10° NNW 17:42:52 19° NNE 17:44:44 14° ENE
Cosmos 1455 Rocket 3.4 17:38:57 10° N 17:43:01 40° ENE 17:47:04 10° SE
CZ-4C R/B 1.8 17:39:42 10° SW 17:43:57 86° NW 17:49:28 10° NE
NOSS 3-3 (C) 3.7 17:39:17 10° SSW 17:44:27 72° SE 17:50:40 10° NE
Cosmos 1975 Rocket 4.2 17:41:34 10° SE 17:44:54 22° E 17:48:13 10° NE
BREEZE-M DEB (TANK) 3.5 17:41:16 10° WNW 17:45:29 71° SSW 17:52:42 10° ESE
USA 306 3.5 17:43:29 10° WNW 17:45:54 25° SW 17:47:37 10° SSE
YAOGAN 1 2.5 17:42:06 10° SSE 17:46:21 89° WSW 17:50:39 10° NNW
Cosmos 158 Rocket 4.3 17:42:41 10° SW 17:47:29 62° WNW 17:52:20 10° NNE
SeaSat 1 3.4 17:43:33 10° S 17:48:18 51° WSW 17:53:06 10° NW
SAR-Lupe-4 4.5 17:47:53 10° S 17:51:22 52° W 17:54:52 10° NNW
Cosmos 1464 Rocket 4.4 17:45:44 10° N 17:51:41 39° ENE 17:57:32 10° SE
NOAA 6 4.0 17:49:08 10° SSE 17:54:14 71° ENE 17:59:24 10° N
Spot 4 Rocket 4.0 17:49:42 10° SSE 17:54:49 86° ENE 17:59:57 10° NNW
COSMO-SKYMED 1 2.3 17:52:02 10° NNE 17:56:09 71° ESE 18:00:15 10° S
Cosmos 2228 3.6 17:52:50 10° N 17:56:36 32° ENE 18:00:22 10° SE
CZ-4 R/B 3.2 17:58:02 13° NE 17:58:02 13° NE 17:58:53 10° NNE
PSLV R/B 3.3 17:52:50 10° SSE 17:56:57 76° ENE 18:01:03 10° N
Okean 1 Rocket 3.2 17:52:55 10° NNW 17:57:20 75° W 18:01:40 10° S
USA 234 4.5 17:52:04 10° SSE 17:58:13 42° SW 18:04:24 10° WNW
Okean 2 Rocket 3.6 17:55:18 10° NNW 17:59:39 61° W 18:03:57 10° S
Cosmos 2221 Rocket 3.6 17:55:18 10° S 17:59:45 89° ESE 18:04:18 10° N
ARIANE 5 R/B 4.5 17:56:04 10° SSW 18:00:38 32° W 18:05:11 10° NNW
SPOT 5 3.8 18:00:21 20° E 18:02:30 27° ENE 18:06:45 10° N
Cosmos 773 Rocket 4.4 17:58:20 10° S 18:03:15 42° ESE 18:08:12 10° NE
BREEZE-M (TANK) 3.0 18:04:41 10° W 18:07:13 57° SSW 18:12:02 15° ESE
Radarsat Rocket 4.1 18:02:06 10° SSE 18:07:56 79° WSW 18:14:17 10° NNW
CZ-2D R/B 4.0 18:06:22 10° S 18:10:13 56° W 18:14:10 10° NNW
NOSS 3-3 (A) 3.9 18:06:53 10° SW 18:12:08 71° NW 18:18:19 11° NE
Sich 1 Rocket 4.4 18:08:22 10° NNW 18:12:50 57° W 18:17:17 10° S
CSL-04 Rocket 4.1 18:11:33 20° ESE 18:14:38 37° ENE 18:19:26 10° N
IRAS Rocket 4.2 18:10:57 10° SSE 18:16:31 71° ENE 18:22:08 10° NNW
Cosmos 2297 Rocket 2.1 18:12:00 10° SSW 18:17:40 82° ESE 18:23:22 10° NNE
Tiangong 0.1 18:16:50 10° SSW 18:18:46 15° SSE 18:18:49 15° SSE
Cosmos 1025 Rocket 4.2 18:15:50 10° SSW 18:19:57 45° WNW 18:24:09 10° N
Cosmos 836 Rocket 4.4 18:15:24 10° S 18:20:38 69° ESE 18:25:55 10° NNE
Resurs 01 Rocket 1.6 18:18:05 10° SSE 18:22:28 83° WSW 18:26:55 10° NNW
Orbus 7S? 4.2 18:13:37 10° WNW 18:22:39 80° NNE 18:24:45 32° ESE
Cosmos 2150 Rocket 3.9 18:18:01 10° NNW 18:23:11 66° ENE 18:27:13 16° SE
Cosmos 2298 Rocket 4.0 18:20:16 10° NNW 18:25:33 66° ENE 18:29:31 18° SE
Cosmos 2344 3.9 18:23:00 10° S 18:30:11 38° ESE 18:32:55 29° ENE
NOSS 3-4 (A) 3.8 18:24:09 10° NW 18:30:52 89° SW 18:37:51 14° SE
NOSS 3-4 (C) 3.8 18:24:24 10° NW 18:31:09 90° SW 18:38:02 14° SE
Cosmos 1782 3.0 18:28:50 10° N 18:31:36 42° NNE 18:31:36 42° NNE
BREEZE-M DEB (TANK) 4.4 18:08:44 10° WSW 18:33:19 70° S 18:36:50 32° E
CRYOSAT 2 4.4 18:30:51 10° N 18:35:45 80° W 18:40:37 10° S
Helios 1A Rocket 4.1 18:39:28 21° S 18:39:28 21° S 18:40:42 10° S
CZ-4B R/B 3.7 18:43:54 66° ENE 18:43:54 66° ENE 18:47:42 10° N
Lacrosse 5 rocket 2.6 18:41:35 10° WNW 18:44:32 24° N 18:44:56 24° N
PAYLOAD B 4.5 18:45:54 43° E 18:46:34 45° ENE 18:51:53 10° N
Cosmos 2263 Rocket 2.8 18:42:33 10° S 18:46:41 36° SE 18:46:41 36° SE
ATLAS 2AS CENTAUR R/B 4.3 18:42:24 10° WNW 18:47:48 24° N 18:51:31 16° NE
Terra 3.5 18:51:38 20° NNE 18:51:38 20° NNE 18:53:28 10° N
SJ-6B 3.2 18:46:43 13° S 18:49:40 51° W 18:53:03 10° NNW
Cosmos 2237 Rocket 3.2 18:45:54 10° NW 18:51:17 46° WSW 18:56:40 10° S
Cosmos 44 Rocket 3.3 18:56:05 10° SW 19:01:01 85° NW 19:02:15 53° NNE
ERS-1 Rocket 3.9 19:04:25 32° NNE 19:04:25 32° NNE 19:07:29 10° N
USA 267 3.9 18:59:48 29° NE 19:02:52 48° N 19:09:04 10° W
Meteor 1-31 Rocket 4.3 19:06:44 26° NNW 19:06:44 26° NNW 19:08:22 10° NNW
Cosmos 1816 Rocket 4.4 18:58:56 10° S 19:05:05 90° NW 19:11:22 10° N
Cosmos 2034 Rocket 3.9 19:02:42 10° N 19:08:55 89° E 19:13:44 18° S
ADEOS 4.0 19:12:55 46° NNE 19:12:55 46° NNE 19:16:52 10° N
Cosmos 1544 Rocket 4.2 19:11:08 10° NNW 19:14:21 49° NNW 19:14:21 49° NNW
SL-16 R/B 2.1 19:10:59 10° NNW 19:16:41 89° ENE 19:17:18 72° SSE
Cosmos 2227 Rocket 2.2 19:11:12 10° SSW 19:16:51 82° WNW 19:18:49 43° NNE
Cosmos 1634 Rocket 4.0 19:11:01 10° N 19:17:04 61° ENE 19:17:04 61° ENE
Cosmos 1975 Rocket 4.2 19:18:14 10° SW 19:22:21 41° WNW 19:26:28 10° N
ARIANE 6 FM1 Upper Stage 4.1 19:18:33 10° NW 19:20:45 31° NNW 19:20:45 31° NNW
CZ-4 R/B 3.6 19:33:01 17° NNW 19:33:01 17° NNW 19:34:02 10° NNW
Gblst 52 Del rocket 4.5 19:23:12 10° WNW 19:30:35 75° N 19:31:10 70° NE
CZ-4C R/B 3.8 19:28:56 10° WNW 19:33:03 26° NNW 19:35:03 22° NNE
Gbstr 26 Del rocket 4.5 19:31:44 10° SW 19:37:44 55° S 19:37:44 55° S
CZ-4B R/B 3.7 19:40:18 50° NNW 19:40:18 50° NNW 19:44:10 10° NNW
SPOT 5 3.8 19:39:23 42° SW 19:40:11 46° W 19:45:04 10° NNW
MOS 1 4.5 19:43:59 67° NW 19:43:59 67° NW 19:48:56 10° NNW
Cosmos 2297 Rocket 4.2 19:57:54 10° W 20:02:23 24° NW 20:06:06 13° N
Cosmos 1943 4.4 20:00:04 10° NNW 20:03:25 37° NNW 20:03:25 37° NNW
Terra 4.4 20:30:15 16° NNW 20:30:15 16° NNW 20:31:16 10° NNW
Cosmos 2263 Rocket 4.2 20:26:18 10° WSW 20:28:28 22° WSW 20:28:28 22° WSW
ATLAS 2AS CENTAUR R/B 4.2 20:34:55 10° NW 20:38:56 26° N 20:38:56 26° N
Cosmos 2344 4.1 20:36:50 10° WSW 20:43:00 50° WNW 20:43:00 50° WNW
USA 267 4.4 20:47:08 38° NNW 20:47:08 38° NNW 20:51:27 10° WNW
